Date String (YYYY-MM-DD hh:mm:ss) UTC,Instrument flags,Ambient pressure (hPa),Sample flow (lpm),Bypass flow (lpm),Sample temperature (°C),Ambient temperature (°C),ASC tube jacket temperature (°C),LED temperature (°C),Box temperature (°C),Sample RH (%),Span deviation,Mass concentration (μg/m³),Mass concentration (μg/m³),Mass concentration (μg/m³)
DateTimeUTC,F1_M11,P_M11,Q1_M11,Q2_M11,T1_M11,T2_M11,T3_M11,T4_M11,T5_M11,U1_M11,ZSPAN_M11,X0_M11,X2_M11,X1_M11
2022-01-09 18:00:00,,0835.9,4.99,0.00,23.2,22.6,00.0,32.1,25.1,11.6,0000.0,0006.69,0004.42,0004.22
2022-01-09 18:01:00,,0835.9,5.01,0.00,23.3,22.6,00.0,32.1,25.1,11.8,0000.0,0006.66,0004.40,0004.20
2022-01-09 18:02:00,,0835.9,4.99,0.00,23.3,22.6,00.0,32.1,25.1,11.7,0000.0,0006.79,0004.42,0004.21
2022-01-09 18:03:00,,0835.8,5.01,0.00,23.3,22.6,00.0,32.1,25.1,11.6,0000.0,0006.89,0004.43,0004.21
2022-01-09 18:04:00,,0835.8,5.00,0.00,23.3,22.7,00.0,32.2,25.2,11.7,0000.0,0006.85,0004.41,0004.19
2022-01-09 18:05:00,,0835.7,5.00,0.00,23.3,22.7,00.0,32.2,25.2,11.7,0000.0,0006.76,0004.41,0004.19
2022-01-09 18:06:00,,0835.7,4.99,0.00,23.3,22.7,00.0,32.2,25.2,11.7,0000.0,0006.72,0004.40,0004.18
2022-01-09 18:07:00,,0835.7,5.01,0.00,23.3,22.7,00.0,32.2,25.2,11.6,0000.0,0006.72,0004.40,0004.18
2022-01-09 18:08:00,,0835.8,5.01,0.00,23.4,22.7,00.0,32.2,25.2,11.7,0000.0,0006.57,0004.38,0004.17
2022-01-09 18:09:00,,0835.8,5.00,0.00,23.4,22.7,00.0,32.2,25.2,11.7,0000.0,0006.54,0004.37,0004.16
2022-01-09 18:10:00,,0835.9,5.00,0.00,23.4,22.7,00.0,32.2,25.2,11.7,0000.0,0006.34,0004.37,0004.16
2022-01-09 18:11:00,,0835.9,5.01,0.00,23.4,22.7,00.0,32.3,25.3,11.7,0000.0,0006.36,0004.35,0004.14
2022-01-09 18:12:00,,0835.8,5.01,0.00,23.4,22.8,00.0,32.3,25.3,11.8,0000.0,0006.43,0004.35,0004.12
2022-01-09 18:13:00,,0835.8,4.99,0.00,23.4,22.8,00.0,32.3,25.3,11.8,0000.0,0006.37,0004.33,0004.10
2022-01-09 18:14:00,,0835.8,5.00,0.00,23.4,22.8,00.0,32.3,25.3,11.8,0000.0,0006.22,0004.30,0004.09
2022-01-09 18:15:00,,0835.9,5.00,0.00,23.5,22.8,00.0,32.3,25.4,11.7,0000.0,0006.27,0004.29,0004.07
2022-01-09 18:16:00,,0835.9,5.00,0.00,23.5,22.8,00.0,32.3,25.4,11.7,0000.0,0006.29,0004.28,0004.07
2022-01-09 18:17:00,,0835.9,5.00,0.00,23.5,22.9,00.0,32.4,25.4,11.6,0000.0,0006.20,0004.26,0004.06
2022-01-09 18:18:00,,0835.9,5.00,0.00,23.5,22.9,00.0,32.4,25.4,11.6,0000.0,0006.18,0004.24,0004.04
2022-01-09 18:19:00,,0835.9,5.01,0.00,23.5,22.9,00.0,32.4,25.4,11.7,0000.0,0006.19,0004.23,0004.03
2022-01-09 18:20:00,,0835.8,5.00,0.00,23.6,22.9,00.0,32.4,25.5,11.7,0000.0,0006.07,0004.22,0004.03
2022-01-09 18:21:00,,0835.8,5.01,0.00,23.6,22.9,00.0,32.4,25.5,11.6,0000.0,0006.09,0004.22,0004.03
2022-01-09 18:22:00,,0835.8,5.00,0.00,23.6,22.9,00.0,32.4,25.5,11.5,0000.0,0006.08,0004.22,0004.06
2022-01-09 18:23:00,,0835.8,4.99,0.00,23.6,22.9,00.0,32.5,25.5,11.5,0000.0,0006.06,0004.23,0004.08
2022-01-09 18:24:00,,0835.7,5.01,0.00,23.6,22.9,00.0,32.5,25.5,11.6,0000.0,0006.38,0004.25,0004.10
2022-01-09 18:25:00,,0835.7,4.99,0.00,23.6,22.9,00.0,32.5,25.5,11.6,0000.0,0006.69,0004.28,0004.12
2022-01-09 18:26:00,,0835.6,5.01,0.00,23.6,22.9,00.0,32.5,25.5,11.6,0000.0,0006.66,0004.30,0004.15
2022-01-09 18:27:00,,0835.6,4.99,0.00,23.6,22.9,00.0,32.5,25.4,11.5,0000.0,0006.65,0004.32,0004.17
2022-01-09 18:28:00,,0835.6,5.02,0.00,23.6,22.9,00.0,32.5,25.5,11.6,0000.0,0006.75,0004.35,0004.20
2022-01-09 18:29:00,,0835.6,4.99,0.00,23.6,22.8,00.0,32.5,25.5,11.6,0000.0,0006.71,0004.37,0004.23
2022-01-09 18:30:00,,0835.7,5.00,0.00,23.6,22.8,00.0,32.5,25.4,11.5,0000.0,0006.73,0004.40,0004.26
2022-01-09 18:31:00,,0835.7,5.01,0.00,23.6,22.8,00.0,32.5,25.4,11.5,0000.0,0006.83,0004.44,0004.29
2022-01-09 18:32:00,,0835.7,5.00,0.00,23.6,22.8,00.0,32.5,25.4,11.5,0000.0,0006.86,0004.47,0004.31
2022-01-09 18:33:00,,0835.6,5.00,0.00,23.6,22.8,00.0,32.5,25.4,11.5,0000.0,0006.86,0004.50,0004.33
2022-01-09 18:34:00,,0835.6,5.01,0.00,23.6,22.8,00.0,32.5,25.4,11.5,0000.0,0006.96,0004.55,0004.36
2022-01-09 18:35:00,,0835.6,5.00,0.00,23.6,22.8,00.0,32.5,25.3,11.5,0000.0,0006.77,0004.57,0004.38
2022-01-09 18:36:00,,0835.6,5.00,0.00,23.6,22.8,00.0,32.5,25.3,11.6,0000.0,0006.50,0004.59,0004.40
2022-01-09 18:37:00,,0835.6,5.01,0.00,23.6,22.8,00.0,32.5,25.3,11.6,0000.0,0006.57,0004.62,0004.43
2022-01-09 18:38:00,,0835.6,4.99,0.00,23.6,22.8,00.0,32.5,25.3,11.6,0000.0,0006.62,0004.65,0004.45
2022-01-09 18:39:00,,0835.5,5.00,0.00,23.6,22.8,00.0,32.5,25.4,11.7,0000.0,0006.57,0004.65,0004.46
2022-01-09 18:40:00,,0835.6,5.00,0.00,23.6,22.8,00.0,32.5,25.4,11.6,0000.0,0006.58,0004.67,0004.48
2022-01-09 18:41:00,,0835.6,5.00,0.00,23.6,22.8,00.0,32.5,25.4,11.6,0000.0,0006.63,0004.68,0004.48
2022-01-09 18:42:00,,0835.6,4.99,0.00,23.5,22.8,00.0,32.5,25.3,11.6,0000.0,0006.74,0004.70,0004.49
2022-01-09 18:43:00,,0835.6,4.99,0.00,23.5,22.8,00.0,32.5,25.3,11.6,0000.0,0006.71,0004.70,0004.50
2022-01-09 18:44:00,,0835.6,5.01,0.00,23.5,22.8,00.0,32.5,25.3,11.7,0000.0,0006.68,0004.69,0004.50
2022-01-09 18:45:00,,0835.5,5.00,0.00,23.5,22.8,00.0,32.5,25.3,11.7,0000.0,0006.71,0004.68,0004.49
2022-01-09 18:46:00,,0835.6,5.00,0.00,23.6,22.9,00.0,32.5,25.4,11.6,0000.0,0006.67,0004.66,0004.49
2022-01-09 18:47:00,,0835.5,5.01,0.00,23.6,22.9,00.0,32.5,25.4,11.6,0000.0,0006.58,0004.66,0004.48
2022-01-09 18:48:00,,0835.5,4.99,0.00,23.6,22.9,00.0,32.5,25.4,11.7,0000.0,0006.55,0004.64,0004.47
2022-01-09 18:49:00,,0835.5,5.00,0.00,23.6,22.9,00.0,32.5,25.4,11.7,0000.0,0006.56,0004.63,0004.47
2022-01-09 18:50:00,,0835.4,5.01,0.00,23.6,22.9,00.0,32.5,25.4,11.7,0000.0,0006.57,0004.63,0004.47
2022-01-09 18:51:00,,0835.4,5.00,0.00,23.6,22.9,00.0,32.5,25.5,11.8,0000.0,0006.65,0004.66,0004.48
2022-01-09 18:52:00,,0835.5,4.99,0.00,23.6,23.0,00.0,32.5,25.5,11.7,0000.0,0006.73,0004.68,0004.49
2022-01-09 18:53:00,,0835.5,5.02,0.00,23.7,23.0,00.0,32.6,25.5,11.7,0000.0,0006.63,0004.66,0004.49
2022-01-09 18:54:00,,0835.6,4.99,0.00,23.7,23.0,00.0,32.6,25.5,11.6,0000.0,0006.73,0004.68,0004.51
2022-01-09 18:55:00,,0835.5,5.01,0.00,23.7,23.0,00.0,32.6,25.5,11.6,0000.0,0006.83,0004.70,0004.53
2022-01-09 18:56:00,,0835.5,5.00,0.00,23.7,23.1,00.0,32.6,25.5,11.5,0000.0,0006.79,0004.73,0004.55
2022-01-09 18:57:00,,0835.6,5.01,0.00,23.7,23.1,00.0,32.6,25.5,11.5,0000.0,0006.90,0004.77,0004.58
2022-01-09 18:58:00,,0835.6,4.99,0.00,23.8,23.1,00.0,32.6,25.5,11.5,0000.0,0006.97,0004.78,0004.59
2022-01-09 18:59:00,,0835.5,5.02,0.00,23.8,23.1,00.0,32.6,25.6,11.4,0000.0,0007.03,0004.79,0004.61
